Погода в Толанаро

Мадагаскар     25°00′38″S   46°58′26″E
темп.,
°C
ветер,
м/с
пор.,
м/с
влажн.,
%
обл.,
%
осадки,
мм/ч
давл.,
гПа
погр.,
м
1 марта, пн
пн100:00+24св2289100 2.0 1011153
03:00+24с118999 3.1 101146
06:00+24ссв1289100 0.1 1011129
09:00+28в3573100 0.1 1012733
12:00+29в556599 0.4 1012984
15:00+28в567377 2.2 1011820
18:00+26всв578296 1.3 1012608
21:00+24всв599198 7.6 1014446
2 марта, вт
вт200:00+24всв61092100 6.8 1014616
03:00+21св51194100 21.6 1013463
06:00+22всв3689100 0.9 1013303
09:00+24всв4790100 1.6 1014523
12:00+27всв4680100 1.4 1013714
15:00+29всв586480 1.7 10111161
18:00+26св587661 0.0 1012767
21:00+25св597974 0.0 1013636
3 марта, ср
ср300:00+23ссв4785100 0.1 1013400
03:00+23ссв4785100 0.1 1011325
06:00+22ссв488770 0.0 1011361
09:00+27св587060 0.1 1012967
12:00+26всв587869 0.3 1010704
15:00+28всв677084 0.3 1009978
18:00+25всв369094 1.3 1009423
21:00+24всв369092 1.9 1010419
4 марта, чт
чт400:00+23всв3692100 0.9 1009277
03:00+23св3593100 0.9 1008268
06:00+23ссв3592100 0.0 1008242
09:00+27св4775100 0.0 1008711
12:00+30всв666368 0.0 10071055
15:00+28всв687050 0.1 1006952
18:00+26св588296 0.2 1006802
21:00+25св598498 0.3 1008686
5 марта, пт
пт500:00+25св4986100 0.0 1008594
03:00+24ссв3888100 0.1 1007432
06:00+23ссв359168 0.0 1007235
09:00+28св476676 0.0 1008768
12:00+31всв675395 0.0 10071020
15:00+30всв795285 0.0 1006777
18:00+26св611636 0.0 1006566
21:00+24св6115825 0.0 1008627